TimePST,TemperatureF,Dew PointF,Humidity,Sea Level PressureIn,VisibilityMPH,Wind Direction,Wind SpeedMPH,Gust SpeedMPH,PrecipitationIn,Events,Conditions,WindDirDegrees,DateUTC
12:15 AM,48.2,46.4,93,30.01,6.0,North,3.5,-,0.01,Rain,Light Rain,360,2012-12-05 08:15:00
12:53 AM,48.9,48.0,97,30.02,4.0,Calm,Calm,-,0.02,Rain,Rain,0,2012-12-05 08:53:00
1:07 AM,48.2,46.4,93,30.02,6.0,Calm,Calm,-,0.00,Rain,Light Rain,0,2012-12-05 09:07:00
1:53 AM,48.9,48.0,97,30.04,8.0,Calm,Calm,-,0.01,Rain,Light Rain,0,2012-12-05 09:53:00
2:25 AM,48.2,48.2,100,30.04,5.0,Calm,Calm,-,0.01,Rain,Light Rain,0,2012-12-05 10:25:00
2:53 AM,48.9,48.0,97,30.06,10.0,North,3.5,-,0.02,Rain,Light Rain,350,2012-12-05 10:53:00
3:36 AM,48.2,48.2,100,30.07,7.0,Calm,Calm,-,0.01,Rain,Light Rain,0,2012-12-05 11:36:00
3:53 AM,48.9,48.0,97,30.07,3.0,Calm,Calm,-,0.03,Rain,Light Rain,0,2012-12-05 11:53:00
3:58 AM,48.2,48.2,100,30.07,2.5,Calm,Calm,-,0.01,Rain,Light Rain,0,2012-12-05 11:58:00
4:09 AM,48.2,48.2,100,30.08,4.0,North,4.6,-,0.01,Rain,Light Rain,360,2012-12-05 12:09:00
4:17 AM,48.2,48.2,100,30.08,5.0,NNE,3.5,-,0.02,Rain,Light Rain,20,2012-12-05 12:17:00
4:53 AM,48.9,48.0,97,30.09,5.0,Calm,Calm,-,0.03,Rain,Light Rain,0,2012-12-05 12:53:00
6:40 AM,48.2,46.4,93,30.12,4.0,NNE,4.6,-,0.02,Rain,Light Rain,20,2012-12-05 14:40:00
6:48 AM,48.2,46.4,93,30.12,5.0,NNE,3.5,-,0.02,Rain,Light Rain,30,2012-12-05 14:48:00
6:53 AM,48.0,46.9,96,30.13,6.0,NE,3.5,-,0.02,Rain,Light Rain,40,2012-12-05 14:53:00
7:53 AM,48.9,46.0,90,30.14,10.0,Calm,Calm,-,0.01,,Overcast,0,2012-12-05 15:53:00
8:53 AM,48.9,46.9,93,30.15,10.0,Calm,Calm,-,N/A,,Overcast,0,2012-12-05 16:53:00
9:49 AM,48.2,46.4,93,30.16,10.0,Calm,Calm,-,N/A,,Overcast,0,2012-12-05 17:49:00
9:53 AM,48.9,46.9,93,30.17,10.0,Calm,Calm,-,N/A,,Overcast,0,2012-12-05 17:53:00
10:19 AM,50.0,46.4,87,30.17,10.0,Calm,Calm,-,N/A,,Overcast,0,2012-12-05 18:19:00
10:46 AM,50.0,46.4,87,30.17,10.0,Calm,Calm,-,N/A,,Overcast,0,2012-12-05 18:46:00
10:53 AM,50.0,46.9,89,30.17,10.0,Calm,Calm,-,N/A,,Overcast,0,2012-12-05 18:53:00
11:53 AM,51.8,46.4,82,30.16,10.0,WNW,3.5,-,N/A,,Overcast,300,2012-12-05 19:53:00
12:53 PM,52.0,46.9,83,30.16,10.0,WNW,4.6,-,N/A,,Overcast,300,2012-12-05 20:53:00
1:43 PM,51.8,46.4,82,30.15,10.0,West,5.8,-,N/A,,Overcast,280,2012-12-05 21:43:00
1:53 PM,52.0,45.0,77,30.15,10.0,WNW,6.9,-,N/A,,Overcast,300,2012-12-05 21:53:00
2:40 PM,51.8,44.6,76,30.14,10.0,West,6.9,-,N/A,,Overcast,280,2012-12-05 22:40:00
2:53 PM,52.0,45.0,77,30.14,10.0,West,6.9,-,N/A,,Overcast,280,2012-12-05 22:53:00
3:53 PM,52.0,45.0,77,30.15,10.0,WNW,4.6,-,N/A,,Overcast,300,2012-12-05 23:53:00
4:53 PM,51.1,44.1,77,30.14,10.0,WNW,5.8,-,N/A,,Overcast,290,2012-12-06 00:53:00
5:05 PM,50.0,44.6,82,30.14,10.0,NW,4.6,-,N/A,,Overcast,310,2012-12-06 01:05:00
5:53 PM,50.0,44.1,80,30.14,10.0,NW,5.8,-,N/A,,Overcast,310,2012-12-06 01:53:00
6:53 PM,48.9,45.0,86,30.16,9.0,NW,5.8,-,N/A,,Overcast,310,2012-12-06 02:53:00
7:53 PM,48.9,45.0,86,30.17,8.0,NW,4.6,-,N/A,,Overcast,320,2012-12-06 03:53:00
8:53 PM,48.0,44.1,86,30.18,10.0,NW,5.8,-,N/A,,Overcast,320,2012-12-06 04:53:00
9:53 PM,48.0,43.0,83,30.18,10.0,NNW,3.5,-,N/A,,Overcast,340,2012-12-06 05:53:00
10:53 PM,46.9,43.0,86,30.18,10.0,Calm,Calm,-,N/A,,Overcast,0,2012-12-06 06:53:00
11:53 PM,46.9,42.1,83,30.20,10.0,NW,6.9,-,N/A,,Overcast,320,2012-12-06 07:53:00